[[{"header":{"parameterUnit":"m.s-1","parameterCategory":2,"la1":30.2991,"la2":30.254,"lo1":-89.0895,"lo2":-89.0444,"dy":0.0017,"dx":0.0017,"nx":28,"ny":28,"refTime":"2024-04-18T09:00:00:Z","depth":"0","parameterNumber":2,"parameterNumberName":"U-component_of_CURRENTS"},"data":[0,0,0,0,0,0,0,0,0,0,0,0,0,0,0,0,0,0,0,0,0,0,0,0,0,0,0,0,0,0,0,0,0,0,0,0,0,0,0,0,0,0,0,0,0,0,0,0,0,0,0,0,0,0,0,0,0,0,0.268,0.2679,0,0.2617,0.2617,0.2616,0.2569,0.2568,0.2568,0.2567,0.2498,0.2497,0.2496,0,0,0,0,0,0,0,0,0,0,0,0,0,0.2699,0.2699,0.268,0.2679,0.2678,0.2617,0.2617,0.2616,0.2569,0.2568,0.2567,0.2567,0.2499,0.2497,0.2495,0,0,0,0,0,0,0,0,0,0,0,0,0,0.267,0.2699,0.268,0.2646,0.2643,0.2618,0.2617,0.2616,0.2569,0.2568,0.2567,0.2566,0.2499,0.2497,0.2495,0.25,0,0,0.2489,0.2488,0,0,0,0,0,0,0,0,0.2672,0.267,0.2652,0.2649,0.2644,0.2599,0.2598,0.2576,0.2569,0.2598,0.2567,0.2566,0.2531,0.2526,0.2518,0.2497,0.2494,0.2489,0.2488,0.2487,0.2486,0,0,0,0,0,0,0,0.2674,0.2672,0.2657,0.2651,0.2647,0.2613,0.2609,0.2593,0.2571,0.2596,0.2592,0.2583,0.2529,0.252,0.2516,0.2493,0.2489,0.2487,0.2486,0.2485,0.247,0.247,0,0,0,0,0,0,0.2683,0.2674,0.2659,0.2655,0.2655,0.2614,0.2609,0.2615,0.2571,0.2563,0.2584,0.2581,0.2524,0.2519,0.2514,0.2538,0.2487,0.2485,0.2484,0.2469,0.247,0.2471,0,0,0,0,0,0,0.2684,0.2683,0.2661,0.2661,0.2655,0.2615,0.2622,0.2615,0.2604,0.2562,0.2554,0.258,0.2523,0.2517,0.2501,0.2534,0.2484,0.2482,0.2468,0.2469,0.247,0.2572,0,0,0,0,0,0,0.2685,0.2684,0.2694,0.2662,0.2656,0.2665,0.2622,0.2614,0.2599,0.2595,0.2556,0.2549,0.2522,0.2504,0.2499,0.253,0.2481,0.2467,0.2468,0.247,0.2568,0.2577,0.2584,0,0,0,0,0,0.2687,0.2698,0.2695,0.2693,0.267,0.2666,0.2662,0.2629,0.26,0.2613,0.2573,0.255,0.2509,0.2503,0.2497,0.2529,0.2466,0.2468,0.247,0.2564,0.2575,0.2584,0,0,0,0,0,0,0.2686,0.2694,0.2689,0.2696,0.2693,0.2658,0.266,0.2634,0.2613,0.2608,0.2557,0.2548,0.2554,0.252,0.2513,0.2526,0.2486,0.2486,0.256,0.2569,0.2577,0.2561,0.2479,0,0,0,0,0,0.2699,0.2723,0.2714,0.2719,0.2726,0.2695,0.2687,0.2673,0.2646,0.2635,0.2605,0.2573,0.2557,0.2545,0.2531,0.2531,0.2523,0.2547,0.2555,0.2562,0.2544,0.2567,0.2576,0.2476,0.2476,0.2476,0,0,0.2689,0.2703,0.2708,0.2723,0.2717,0.2726,0.2689,0.2693,0.269,0.2632,0.2624,0.2608,0.2565,0.2573,0.2572,0.2547,0.2595,0.2565,0.2571,0.2548,0.257,0.258,0.2589,0.2477,0.2477,0.2477,0,0,0.2696,0.2711,0.2741,0.2752,0.2765,0.2752,0.2757,0.2743,0.2734,0.2729,0.269,0.2684,0.2654,0.2635,0.2617,0.2656,0.2644,0.266,0.2682,0.2707,0.2716,0.2723,0.2766,0.2776,0.2656,0.2657,0.2657,0,0.2683,0.2717,0.2743,0.2775,0.277,0.2767,0.2776,0.2777,0.2755,0.2742,0.2741,0.2699,0.2682,0.2666,0.2684,0.2677,0.2691,0.2654,0.272,0.2726,0.2732,0.2774,0.2784,0.2662,0.2661,0.2661,0.266,0,0.2722,0.2739,0.2756,0.2798,0.2807,0.2816,0.2824,0.2833,0.282,0.2805,0.2804,0.2787,0.2749,0.2765,0.2735,0.2762,0.2763,0.274,0.2701,0.2749,0.279,0.2798,0.2669,0.2667,0.2666,0.2665,0,0,0.2697,0.2766,0.2767,0.278,0.2815,0.2819,0.2839,0.2836,0.2827,0.2843,0.2823,0.2828,0.2815,0.2791,0.2775,0.2798,0.288,0.2788,0.2787,0.2841,0.2957,0.2835,0.2832,0.2877,0.2878,0.2879,0.2985,0,0.2705,0.2753,0.2786,0.2801,0.2818,0.2829,0.2837,0.2843,0.2844,0.2839,0.284,0.2827,0.2826,0.2817,0.2845,0.2849,0.29,0.2854,0.289,0.2891,0.2785,0.2836,0.2584,0.2645,0.2993,0.2994,0.2995,0,0.2728,0.2755,0.2776,0.2794,0.2801,0.2809,0.2807,0.2818,0.2825,0.2827,0.2827,0.2823,0.2839,0.2846,0.2904,0.2876,0.2927,0.2953,0.2957,0.2799,0.2782,0.2642,0.2647,0.2381,0.3008,0.3007,0.3006,0,0.27,0.2736,0.2745,0.2755,0.2788,0.2787,0.2793,0.2805,0.2811,0.2815,0.2818,0.2832,0.2835,0.2894,0.2937,0.293,0.3016,0.3011,0.2964,0.2958,0.2721,0.269,0.2467,0.3088,0.3087,0.3087,0.3087,0,0.2693,0.2696,0.273,0.2739,0.2742,0.2765,0.2765,0.2777,0.2788,0.2798,0.2804,0.2818,0.2849,0.2892,0.295,0.2965,0.3032,0.2967,0.2967,0.2752,0.2724,0.246,0.2411,0.3091,0.309,0.3089,0.3089,0,0.2675,0.269,0.2711,0.2736,0.2738,0.2744,0.2763,0.277,0.2772,0.2788,0.2792,0.2813,0.2864,0.2908,0.2994,0.2956,0.2863,0.3011,0.2758,0.2723,0.2375,0.2344,0.2256,0.2224,0.2953,0.295,0.2948,0,0.2673,0.2688,0.2718,0.2733,0.2746,0.2752,0.2764,0.2767,0.2781,0.2795,0.281,0.2842,0.2874,0.2915,0.2856,0.2896,0.2822,0.2658,0.258,0.2302,0.2271,0.2301,0.2286,0.2345,0.2338,0.2332,0.2327,0,0.2691,0.2705,0.273,0.2757,0.277,0.2777,0.279,0.2793,0.2801,0.2805,0.2828,0.2846,0.2824,0.2698,0.2669,0.2646,0.2401,0.2541,0.2305,0.1804,0.1772,0.1756,0.236,0.2277,0.2282,0.2286,0.2288,0.229,0.2711,0.2739,0.2778,0.279,0.2803,0.2804,0.2783,0.2796,0.2797,0.2732,0.2808,0.2714,0.2499,0.2406,0.2341,0.1864,0.2143,0.1677,0.1685,0.176,0.1624,0.2119,0.1993,0.1996,0.1999,0.2001,0.2003,0,0.2735,0.2774,0.2808,0.2819,0.2804,0.2808,0.28,0.2734,0.2705,0.2623,0.2598,0.2284,0.2004,0.1745,0.1224,0.0968,0.1014,0.085,0.0771,0.0827,0.1247,0.1098,0.0703,0.0703,0.0703,0.0703,0.0704,0.0704,0.2758,0.2794,0.2806,0.2796,0.2793,0.2721,0.269,0.2598,0.2499,0.2233,0.1989,0.1907,0.1447,0.0707,0.0133,0.0108,0.0064,0.0051,0.0202,0.033,0.0405,0.0477,0.0314,-0.0238,-0.0239,-0.0307,-0.0309,-0.031]},{"header":{"parameterUnit":"m.s-1","parameterCategory":2,"la1":30.2991,"la2":30.254,"lo1":-89.0895,"lo2":-89.0444,"dy":0.0017,"dx":0.0017,"nx":28,"ny":28,"refTime":"2024-04-18T09:00:00:Z","depth":"0","parameterNumber":3,"parameterNumberName":"V-component_of_CURRENTS"},"data":[0,0,0,0,0,0,0,0,0,0,0,0,0,0,0,0,0,0,0,0,0,0,0,0,0,0,0,0,0,0,0,0,0,0,0,0,0,0,0,0,0,0,0,0,0,0,0,0,0,0,0,0,0,0,0,0,0,0,-0.0558,-0.0557,0,-0.0465,-0.0464,-0.0463,-0.0421,-0.0421,-0.0421,-0.0421,-0.0351,-0.0349,-0.0347,0,0,0,0,0,0,0,0,0,0,0,0,0,-0.0608,-0.0608,-0.0558,-0.0557,-0.0555,-0.0465,-0.0464,-0.0463,-0.0421,-0.0421,-0.0421,-0.0421,-0.0351,-0.0349,-0.0347,0,0,0,0,0,0,0,0,0,0,0,0,0,-0.0558,-0.0608,-0.0558,-0.0523,-0.0519,-0.0466,-0.0464,-0.0463,-0.0421,-0.0421,-0.0421,-0.0421,-0.0352,-0.0349,-0.0346,-0.0327,0,0,-0.0338,-0.0336,0,0,0,0,0,0,0,0,-0.0561,-0.0557,-0.0529,-0.0525,-0.0521,-0.0454,-0.0456,-0.0418,-0.0421,-0.0458,-0.0421,-0.0421,-0.0387,-0.0381,-0.0364,-0.0324,-0.0321,-0.0337,-0.0336,-0.0334,-0.0334,0,0,0,0,0,0,0,-0.0565,-0.056,-0.0522,-0.0528,-0.0523,-0.0481,-0.0475,-0.0448,-0.0424,-0.0455,-0.0452,-0.0441,-0.0385,-0.0367,-0.0362,-0.032,-0.0338,-0.0335,-0.0333,-0.0332,-0.0302,-0.0303,0,0,0,0,0,0,-0.058,-0.0564,-0.0525,-0.0519,-0.0541,-0.0481,-0.0474,-0.0476,-0.0424,-0.0416,-0.0441,-0.0439,-0.0372,-0.0366,-0.036,-0.0355,-0.0335,-0.0332,-0.033,-0.0301,-0.0302,-0.0303,0,0,0,0,0,0,-0.0582,-0.0578,-0.0528,-0.0538,-0.0528,-0.048,-0.0482,-0.0474,-0.0459,-0.0413,-0.0405,-0.0435,-0.0372,-0.0364,-0.035,-0.0352,-0.0331,-0.0328,-0.03,-0.0301,-0.0303,-0.0334,0,0,0,0,0,0,-0.0584,-0.058,-0.0584,-0.0539,-0.0529,-0.0508,-0.0482,-0.0472,-0.0452,-0.0449,-0.0405,-0.0398,-0.0371,-0.0355,-0.0347,-0.0347,-0.0326,-0.0299,-0.0301,-0.0302,-0.0332,-0.0336,-0.034,0,0,0,0,0,-0.0586,-0.059,-0.0585,-0.058,-0.0538,-0.0508,-0.0499,-0.0464,-0.0452,-0.045,-0.0426,-0.04,-0.0361,-0.0353,-0.0344,-0.0343,-0.0298,-0.03,-0.0302,-0.033,-0.0335,-0.034,0,0,0,0,0,0,-0.0596,-0.0584,-0.0579,-0.0574,-0.055,-0.0501,-0.049,-0.0469,-0.0446,-0.0446,-0.0406,-0.0398,-0.0388,-0.0367,-0.036,-0.0344,-0.0327,-0.0327,-0.0351,-0.0356,-0.036,-0.0337,-0.0323,0,0,0,0,0,-0.0607,-0.0617,-0.0588,-0.0584,-0.0577,-0.0537,-0.0519,-0.05,-0.0472,-0.0461,-0.043,-0.0406,-0.0388,-0.0374,-0.0356,-0.0341,-0.0302,-0.0339,-0.0343,-0.0346,-0.0324,-0.0286,-0.0284,-0.031,-0.031,-0.031,0,0,-0.0603,-0.0601,-0.0602,-0.0588,-0.0566,-0.0557,-0.0527,-0.0508,-0.0496,-0.0458,-0.0437,-0.0419,-0.0391,-0.0378,-0.0372,-0.0359,-0.0321,-0.0349,-0.0352,-0.0327,-0.0288,-0.0285,-0.0282,-0.0311,-0.0311,-0.0311,0,0,-0.0606,-0.0609,-0.0619,-0.061,-0.0592,-0.0571,-0.0571,-0.0534,-0.0517,-0.0497,-0.0473,-0.0453,-0.0423,-0.0396,-0.0381,-0.0396,-0.0349,-0.0403,-0.0394,-0.0358,-0.0355,-0.0351,-0.0302,-0.0293,-0.0399,-0.0399,-0.0399,0,-0.0597,-0.0615,-0.0612,-0.0618,-0.0608,-0.0583,-0.058,-0.056,-0.0521,-0.05,-0.05,-0.044,-0.0424,-0.0389,-0.04,-0.0401,-0.037,-0.0376,-0.0361,-0.0356,-0.0352,-0.0302,-0.0293,-0.0401,-0.0401,-0.0401,-0.0401,0,-0.061,-0.0622,-0.0625,-0.0634,-0.0624,-0.0619,-0.0597,-0.0583,-0.0563,-0.0529,-0.0493,-0.0464,-0.0419,-0.0426,-0.0415,-0.0382,-0.0367,-0.0374,-0.0342,-0.0351,-0.0298,-0.0288,-0.0404,-0.0403,-0.0403,-0.0402,0,0,-0.0589,-0.0627,-0.0626,-0.0638,-0.0635,-0.0624,-0.0615,-0.0585,-0.0561,-0.0528,-0.048,-0.0458,-0.0425,-0.0405,-0.0389,-0.036,-0.0318,-0.0356,-0.0354,-0.0296,-0.0225,-0.0168,-0.015,-0.0325,-0.0324,-0.0323,-0.0201,0,-0.0593,-0.0621,-0.0633,-0.0642,-0.0654,-0.0638,-0.0627,-0.0597,-0.0565,-0.0517,-0.0468,-0.0426,-0.0423,-0.0401,-0.037,-0.0328,-0.0291,-0.0349,-0.0233,-0.0229,-0.0168,-0.0136,-0.0075,0.0043,-0.019,-0.0188,-0.0187,0,-0.0605,-0.0622,-0.0643,-0.0658,-0.0658,-0.0655,-0.0626,-0.0612,-0.0548,-0.0518,-0.0456,-0.041,-0.0344,-0.0355,-0.0254,-0.0292,-0.0255,-0.0226,-0.0221,-0.0141,-0.0151,0.0014,0.0071,0.0135,-0.017,-0.0171,-0.0173,0,-0.0608,-0.063,-0.065,-0.0654,-0.0662,-0.0656,-0.0649,-0.0605,-0.0582,-0.0508,-0.0473,-0.0383,-0.0336,-0.027,-0.0199,-0.0224,-0.009,-0.0118,-0.0024,-0.002,0.0073,0.0083,0.0222,-0.0046,-0.0046,-0.0046,-0.0047,0,-0.0619,-0.0632,-0.0653,-0.0662,-0.066,-0.0665,-0.0643,-0.0622,-0.0575,-0.0529,-0.0469,-0.0411,-0.0317,-0.0227,-0.0171,-0.0044,-0.006,0.0007,0.0025,0.0062,0.0069,0.016,0.0156,-0.0042,-0.0043,-0.0044,-0.0045,0,-0.0624,-0.0645,-0.0662,-0.067,-0.0669,-0.0665,-0.0648,-0.0621,-0.0595,-0.0531,-0.0504,-0.0414,-0.029,-0.0184,-0.0064,-0.0004,0.016,0.0139,0.0188,0.021,0.036,0.035,0.0517,0.0555,0.0285,0.0288,0.029,0,-0.0629,-0.0646,-0.066,-0.0656,-0.0658,-0.0653,-0.0637,-0.0623,-0.059,-0.0527,-0.0485,-0.0366,-0.0254,-0.0042,0.0107,0.0269,0.026,0.0387,0.0351,0.0413,0.0414,0.0396,0.0412,0.0459,0.0462,0.0465,0.0467,0,-0.062,-0.0632,-0.0637,-0.0639,-0.063,-0.0616,-0.0597,-0.0576,-0.0543,-0.0489,-0.0404,-0.032,-0.0112,0.012,0.0322,0.0395,0.0453,0.0445,0.05,0.0572,0.0573,0.0602,0.0333,0.049,0.0488,0.0486,0.0485,0.0484,-0.059,-0.0594,-0.0605,-0.0605,-0.0594,-0.0566,-0.0539,-0.0495,-0.0435,-0.0317,-0.0296,-0.0117,0.0124,0.0436,0.0511,0.0716,0.0644,0.0764,0.0752,0.0733,0.0762,0.0556,0.0727,0.0726,0.0726,0.0725,0.0724,0,-0.0529,-0.0552,-0.0563,-0.0551,-0.0526,-0.0537,-0.0495,-0.0443,-0.0341,-0.0199,-0.0086,0.0224,0.0508,0.0689,0.0967,0.1035,0.1003,0.1043,0.1029,0.1032,0.0864,0.0864,0.1085,0.1085,0.1085,0.1084,0.1084,0.1084,-0.049,-0.0495,-0.0523,-0.0487,-0.0474,-0.0426,-0.0394,-0.0316,-0.0212,0.0035,0.0246,0.0388,0.0604,0.1021,0.1247,0.125,0.1268,0.1273,0.1258,0.1133,0.1105,0.1079,0.1081,0.1343,0.1343,0.1445,0.1446,0.1447]}],[{"header":{"parameterUnit":"m.s-1","parameterCategory":2,"la1":30.2991,"la2":30.254,"lo1":-89.0895,"lo2":-89.0444,"dy":0.0017,"dx":0.0017,"nx":28,"ny":28,"refTime":"2024-04-18T09:00:00:Z","depth":"2","parameterNumber":2,"parameterNumberName":"U-component_of_CURRENTS"},"data":[0,0,0,0,0,0,0,0,0,0,0,0,0,0,0,0,0,0,0,0,0,0,0,0,0,0,0,0,0,0,0,0,0,0,0,0,0,0,0,0,0,0,0,0,0,0,0,0,0,0,0,0,0,0,0,0,0,0,0.1204,0.1204,0,0.1236,0.1236,0.1236,0.1221,0.1221,0.1221,0.122,0.1186,0.1185,0.1185,0,0,0,0,0,0,0,0,0,0,0,0,0,0.1139,0.114,0.1203,0.1204,0.1205,0.1236,0.1236,0.1236,0.1221,0.1221,0.122,0.122,0.1186,0.1185,0.1185,0,0,0,0,0,0,0,0,0,0,0,0,0,0.1165,0.114,0.1203,0.1205,0.1205,0.1236,0.1236,0.1236,0.1222,0.1221,0.122,0.122,0.1186,0.1185,0.1185,0.1192,0,0,0.1182,0.1182,0,0,0,0,0,0,0,0,0.1163,0.1167,0.1204,0.1205,0.1206,0.1228,0.1201,0.122,0.1222,0.1211,0.122,0.1219,0.1197,0.1195,0.1197,0.119,0.1189,0.1182,0.1182,0.1181,0.1181,0,0,0,0,0,0,0,0.1161,0.1165,0.1212,0.1205,0.1206,0.1208,0.121,0.1204,0.1202,0.1212,0.1212,0.1223,0.1196,0.1198,0.1196,0.1188,0.1182,0.1181,0.1181,0.1181,0.1213,0.1214,0,0,0,0,0,0,0.1167,0.1164,0.1211,0.1213,0.1188,0.121,0.1212,0.1218,0.1204,0.1203,0.1223,0.1222,0.12,0.1197,0.1195,0.124,0.1181,0.118,0.118,0.1212,0.1213,0.1215,0,0,0,0,0,0,0.1165,0.117,0.121,0.1193,0.1199,0.1212,0.1218,0.1219,0.1236,0.1214,0.1211,0.1242,0.1199,0.1196,0.1195,0.1237,0.118,0.1179,0.121,0.1212,0.1214,0.1306,0,0,0,0,0,0,0.1163,0.1169,0.1182,0.1193,0.12,0.1235,0.1219,0.122,0.1245,0.1244,0.1229,0.1224,0.1199,0.1197,0.1195,0.1235,0.1179,0.1208,0.1211,0.1213,0.1302,0.1311,0.1319,0,0,0,0,0,0.116,0.1191,0.1183,0.1189,0.1215,0.1236,0.124,0.1244,0.1247,0.1257,0.1244,0.1225,0.1212,0.1197,0.1194,0.1235,0.1207,0.121,0.1213,0.1298,0.1309,0.1319,0,0,0,0,0,0,0.1199,0.1192,0.1184,0.1218,0.1226,0.1236,0.1257,0.126,0.126,0.1265,0.1235,0.123,0.1252,0.1226,0.1211,0.1252,0.121,0.1213,0.1275,0.1286,0.1295,0.129,0.1178,0,0,0,0,0,0.1207,0.1213,0.1213,0.1246,0.1247,0.1253,0.1268,0.1273,0.1275,0.1276,0.1266,0.1258,0.1262,0.1258,0.1254,0.1269,0.1256,0.1296,0.1305,0.1313,0.1307,0.1366,0.138,0.1225,0.1225,0.1225,0,0,0.1233,0.1235,0.124,0.1253,0.1258,0.1254,0.126,0.1292,0.1297,0.1272,0.1283,0.1293,0.1274,0.1294,0.1302,0.1278,0.1342,0.1316,0.1323,0.1313,0.1371,0.1386,0.14,0.1227,0.1226,0.1226,0,0,0.1266,0.1286,0.1277,0.1277,0.1289,0.1293,0.1305,0.1317,0.1329,0.1347,0.1336,0.1367,0.1361,0.1361,0.1359,0.1413,0.1393,0.1422,0.1459,0.1518,0.1531,0.1543,0.1512,0.1521,0.1421,0.1421,0.1421,0,0.1278,0.1279,0.1287,0.1273,0.1278,0.1306,0.1298,0.1318,0.1335,0.1352,0.136,0.1397,0.1393,0.1418,0.1442,0.1436,0.1438,0.1422,0.1531,0.1543,0.1554,0.1519,0.1528,0.1426,0.1425,0.1425,0.1424,0,0.1287,0.1282,0.1291,0.1263,0.1278,0.1293,0.1307,0.1335,0.137,0.139,0.1447,0.1462,0.148,0.1504,0.149,0.1564,0.1528,0.1544,0.1508,0.1575,0.1533,0.154,0.1433,0.1431,0.143,0.1428,0,0,0.1291,0.1282,0.1282,0.1264,0.1273,0.1289,0.1312,0.1339,0.1373,0.1423,0.1467,0.1514,0.1551,0.155,0.1563,0.162,0.1697,0.1621,0.1622,0.1593,0.1775,0.158,0.1568,0.1754,0.1757,0.1759,0.1703,0,0.1272,0.1252,0.1257,0.1249,0.1232,0.1264,0.1286,0.133,0.1383,0.1438,0.1498,0.1547,0.1559,0.1594,0.1657,0.1688,0.1726,0.1706,0.1709,0.1706,0.1532,0.1574,0.1432,0.1358,0.1709,0.171,0.1711,0,0.1246,0.124,0.1231,0.1229,0.1229,0.1244,0.1304,0.1328,0.1409,0.1454,0.1524,0.1571,0.1635,0.1666,0.174,0.1733,0.176,0.1787,0.1786,0.1576,0.1526,0.1353,0.1356,0.1722,0.1721,0.172,0.172,0,0.1239,0.1211,0.1216,0.1214,0.123,0.1252,0.1274,0.1345,0.1386,0.1472,0.1517,0.1598,0.1642,0.1715,0.1738,0.1767,0.181,0.185,0.1686,0.1669,0.1527,0.1493,0.1925,0.1925,0.1925,0.1925,0.1925,0,0.121,0.1205,0.1218,0.1225,0.1247,0.1257,0.1314,0.1346,0.1417,0.147,0.153,0.1582,0.1676,0.1702,0.174,0.1685,0.1799,0.1678,0.1656,0.1546,0.1515,0.1823,0.1812,0.1923,0.1923,0.1924,0.1924,0,0.1207,0.121,0.1213,0.1238,0.1247,0.1276,0.1325,0.1372,0.1417,0.1486,0.1513,0.1582,0.1597,0.1618,0.1698,0.1643,0.1642,0.16,0.1401,0.1355,0.146,0.1455,0.1422,0.1415,0.1409,0.1404,0.14,0,0.1207,0.1209,0.1242,0.127,0.1289,0.1324,0.136,0.1387,0.1427,0.1482,0.1513,0.1534,0.1516,0.1464,0.1402,0.1336,0.1491,0.1155,0.1189,0.1434,0.1417,0.142,0.1423,0.1032,0.1025,0.102,0.1015,0,0.1213,0.1239,0.1264,0.132,0.1358,0.1356,0.1389,0.1419,0.1451,0.1454,0.1474,0.1452,0.1361,0.1198,0.1039,0.1016,0.1145,0.1032,0.1388,0.1157,0.1055,0.1041,0.106,0.0965,0.097,0.0974,0.0976,0.0978,0.1241,0.1272,0.1325,0.1358,0.1383,0.1365,0.1351,0.1372,0.1359,0.13,0.1379,0.1206,0.1098,0.0754,0.0705,0.066,0.0786,0.0753,0.0777,0.0805,0.0746,0.0637,0.0453,0.0455,0.0456,0.0458,0.0459,0,0.1258,0.1305,0.1353,0.1376,0.1356,0.1378,0.1347,0.1284,0.122,0.1127,0.1072,0.0756,0.0555,0.0488,0.0325,0.0271,0.035,0.0269,0.0393,0.0439,0.048,0.0413,0.0028,0.0028,0.0027,0.0026,0,0,0.1283,0.1318,0.1319,0.1297,0.1327,0.1236,0.1188,0.1085,0.0956,0.075,0.056,0.0484,0.0395,0.0172,0.0143,0.008,0.0277,0.0057,0.0393,0.0584,0.0626,0.073,0.0671,0,0,0,0,0]},{"header":{"parameterUnit":"m.s-1","parameterCategory":2,"la1":30.2991,"la2":30.254,"lo1":-89.0895,"lo2":-89.0444,"dy":0.0017,"dx":0.0017,"nx":28,"ny":28,"refTime":"2024-04-18T09:00:00:Z","depth":"2","parameterNumber":3,"parameterNumberName":"V-component_of_CURRENTS"},"data":[0,0,0,0,0,0,0,0,0,0,0,0,0,0,0,0,0,0,0,0,0,0,0,0,0,0,0,0,0,0,0,0,0,0,0,0,0,0,0,0,0,0,0,0,0,0,0,0,0,0,0,0,0,0,0,0,0,0,0.0196,0.0196,0,0.0231,0.0232,0.0233,0.0264,0.0264,0.0264,0.0264,0.0246,0.0246,0.0246,0,0,0,0,0,0,0,0,0,0,0,0,0,0.0144,0.0145,0.0196,0.0196,0.0196,0.0231,0.0232,0.0233,0.0264,0.0264,0.0264,0.0264,0.0246,0.0246,0.0246,0,0,0,0,0,0,0,0,0,0,0,0,0,0.0176,0.0145,0.0196,0.0212,0.0214,0.0231,0.0232,0.0233,0.0264,0.0264,0.0264,0.0263,0.0247,0.0246,0.0245,0.0244,0,0,0.0244,0.0243,0,0,0,0,0,0,0,0,0.0174,0.0179,0.021,0.0211,0.0212,0.0239,0.0207,0.0233,0.0264,0.025,0.0264,0.0263,0.0236,0.0236,0.0251,0.0243,0.0243,0.0244,0.0243,0.0243,0.0243,0,0,0,0,0,0,0,0.0172,0.0177,0.0215,0.021,0.0211,0.0213,0.0218,0.0213,0.0246,0.0251,0.0252,0.0248,0.0237,0.0251,0.025,0.0242,0.0244,0.0243,0.0243,0.0243,0.0241,0.0241,0,0,0,0,0,0,0.0159,0.0175,0.0213,0.0215,0.0187,0.0214,0.022,0.0234,0.0247,0.0248,0.0249,0.025,0.0252,0.0251,0.025,0.025,0.0243,0.0243,0.0242,0.024,0.0241,0.0241,0,0,0,0,0,0,0.0158,0.0163,0.0212,0.0191,0.0197,0.0214,0.0231,0.0235,0.0239,0.0245,0.0246,0.0246,0.0252,0.025,0.0243,0.0249,0.0242,0.0242,0.024,0.024,0.0241,0.025,0,0,0,0,0,0,0.0157,0.0163,0.017,0.0191,0.0197,0.0217,0.023,0.0236,0.0235,0.0237,0.0243,0.0242,0.0252,0.0244,0.0243,0.0249,0.0241,0.024,0.024,0.0241,0.0249,0.0251,0.0252,0,0,0,0,0,0.0155,0.017,0.0171,0.0175,0.0207,0.0216,0.022,0.0235,0.0235,0.0238,0.0244,0.0242,0.0247,0.0244,0.0242,0.0248,0.0239,0.024,0.0241,0.0249,0.025,0.0252,0,0,0,0,0,0,0.0149,0.0174,0.0176,0.0197,0.0199,0.0219,0.0222,0.0226,0.0235,0.0231,0.024,0.024,0.0239,0.0238,0.0234,0.025,0.0245,0.0245,0.0252,0.0253,0.0254,0.0283,0.0241,0,0,0,0,0,0.0149,0.0168,0.018,0.0191,0.0191,0.0201,0.0205,0.0211,0.0219,0.0223,0.0228,0.0233,0.0243,0.0242,0.0248,0.0247,0.0273,0.0252,0.0253,0.0254,0.0277,0.0336,0.0345,0.0243,0.0243,0.0243,0,0,0.0145,0.0161,0.017,0.019,0.0194,0.0206,0.0205,0.0204,0.022,0.0216,0.0233,0.0232,0.0244,0.0255,0.0254,0.0252,0.0289,0.0255,0.0256,0.0279,0.0338,0.0348,0.0357,0.0244,0.0244,0.0244,0,0,0.0151,0.0162,0.0179,0.0184,0.0185,0.0196,0.019,0.0201,0.021,0.0214,0.0228,0.024,0.0233,0.0267,0.0277,0.0287,0.0294,0.027,0.03,0.0356,0.0365,0.0374,0.039,0.04,0.0271,0.0271,0.0271,0,0.0153,0.0175,0.018,0.0195,0.0203,0.019,0.0206,0.0214,0.0222,0.0243,0.0216,0.0258,0.0255,0.0307,0.0307,0.0294,0.0308,0.0291,0.036,0.0369,0.0378,0.0392,0.0404,0.0271,0.0271,0.0271,0.0271,0,0.0165,0.0185,0.0189,0.0214,0.0222,0.0226,0.0235,0.0244,0.0241,0.0259,0.029,0.0294,0.0328,0.0318,0.031,0.0372,0.0352,0.0354,0.0359,0.0389,0.0401,0.0413,0.0272,0.0272,0.0272,0.0272,0,0,0.0178,0.0202,0.0202,0.0224,0.0234,0.0248,0.0268,0.0303,0.0342,0.033,0.0391,0.0391,0.0392,0.0405,0.04,0.0437,0.0488,0.0413,0.0416,0.0434,0.058,0.0555,0.0564,0.0496,0.0499,0.0501,0.0553,0,0.0192,0.0231,0.0236,0.0271,0.0295,0.03,0.0331,0.0358,0.038,0.0431,0.0439,0.0478,0.0424,0.0438,0.0467,0.0502,0.0524,0.0472,0.0545,0.0547,0.0526,0.058,0.055,0.0593,0.0564,0.0566,0.0567,0,0.0202,0.0236,0.0274,0.0328,0.0337,0.0351,0.0417,0.0441,0.0503,0.0523,0.0558,0.0566,0.0617,0.0562,0.063,0.0595,0.0584,0.0595,0.0597,0.0588,0.0545,0.0564,0.0615,0.0587,0.0586,0.0584,0.0583,0,0.0219,0.0263,0.03,0.0313,0.0365,0.0386,0.0407,0.0468,0.0511,0.0582,0.0626,0.0677,0.0708,0.0725,0.0712,0.0681,0.0785,0.0752,0.0715,0.071,0.0711,0.0703,0.08,0.08,0.08,0.08,0.08,0,0.0246,0.0279,0.0306,0.033,0.0386,0.0403,0.0468,0.0505,0.0572,0.0639,0.0662,0.0729,0.0751,0.0797,0.0769,0.0784,0.0829,0.0744,0.0742,0.0707,0.0699,0.0718,0.0708,0.0802,0.0801,0.0801,0.0801,0,0.0276,0.0286,0.0332,0.0378,0.0394,0.0427,0.0486,0.0547,0.0592,0.0683,0.0704,0.0792,0.0859,0.0866,0.0917,0.0863,0.0879,0.0858,0.0792,0.0782,0.0745,0.0735,0.0846,0.0846,0.0846,0.0846,0.0846,0,0.0303,0.0329,0.0363,0.0387,0.0406,0.0452,0.0501,0.0551,0.0611,0.0718,0.0771,0.0861,0.0945,0.1006,0.0957,0.0938,0.0906,0.0851,0.0795,0.0773,0.076,0.0749,0.0739,0.0782,0.0781,0.0781,0.078,0,0.0367,0.0358,0.0393,0.043,0.0466,0.0531,0.0585,0.0622,0.0687,0.0774,0.0878,0.0956,0.1017,0.1021,0.0983,0.0942,0.0858,0.0839,0.0886,0.0766,0.0715,0.07,0.0692,0.0776,0.0777,0.0777,0.0777,0.0777,0.0403,0.0428,0.0443,0.0485,0.0525,0.0583,0.0617,0.0681,0.0767,0.0851,0.0929,0.1009,0.1039,0.0994,0.0936,0.0826,0.0864,0.0787,0.0788,0.079,0.0766,0.0717,0.0771,0.0771,0.0772,0.0772,0.0772,0,0.0458,0.0471,0.0508,0.0534,0.0569,0.0587,0.0669,0.0688,0.0761,0.0851,0.0939,0.0926,0.0966,0.0934,0.0782,0.0737,0.0712,0.0681,0.0662,0.0669,0.0674,0.0642,0.0615,0.0614,0.0613,0.0613,0,0,0.0484,0.0522,0.0536,0.057,0.0575,0.0625,0.0657,0.068,0.073,0.0792,0.0828,0.0964,0.0968,0.082,0.0779,0.0671,0.0658,0.0635,0.0772,0.0763,0.0767,0.0757,0.0719,0,0,0,0,0]}],[{"header":{"parameterUnit":"m.s-1","parameterCategory":2,"la1":30.2991,"la2":30.254,"lo1":-89.0895,"lo2":-89.0444,"dy":0.0017,"dx":0.0017,"nx":28,"ny":28,"refTime":"2024-04-18T09:00:00:Z","depth":"4","parameterNumber":2,"parameterNumberName":"U-component_of_CURRENTS"},"data":[0,0,0,0,0,0,0,0,0,0,0,0,0,0,0,0,0,0,0,0,0,0,0,0,0,0,0,0,0,0,0,0,0,0,0,0,0,0,0,0,0,0,0,0,0,0,0,0,0,0,0,0,0,0,0,0,0,0,-0.0066,-0.0066,0,-0.004,-0.004,-0.0039,-0.0004,-0.0004,-0.0003,-0.0003,0.0027,0.0028,0.0028,0,0,0,0,0,0,0,0,0,0,0,0,0,-0.0039,-0.004,-0.0066,-0.0066,-0.0066,-0.004,-0.004,-0.0039,-0.0004,-0.0004,-0.0003,-0.0002,0.0027,0.0028,0.0028,0,0,0,0,0,0,0,0,0,0,0,0,0,-0.0036,-0.004,-0.0066,-0.0045,-0.0043,-0.004,-0.0039,-0.0039,-0.0005,-0.0004,-0.0003,-0.0002,0.0027,0.0028,0.0028,0.0013,0,0,0.0029,0.0029,0,0,0,0,0,0,0,0,-0.0036,-0.0037,-0.0049,-0.0047,-0.0044,-0.0024,-0.0019,-0.0021,-0.0005,-0.0019,-0.0003,-0.0002,0.001,0.0012,0.0015,0.0015,0.0016,0.0029,0.0029,0.003,0.003,0,0,0,0,0,0,0,-0.0036,-0.0037,-0.0056,-0.0048,-0.0046,-0.0021,-0.002,-0.0019,-0.001,-0.0018,-0.0015,-0.0013,0.0011,0.0014,0.0016,0.0016,0.0029,0.003,0.003,0.003,0.0088,0.0089,0,0,0,0,0,0,-0.0043,-0.0038,-0.0057,-0.0055,-0.0038,-0.0022,-0.0021,-0.0032,-0.001,-0.0006,-0.0013,-0.0011,0.0013,0.0015,0.0017,0.0042,0.003,0.003,0.003,0.0087,0.0088,0.009,0,0,0,0,0,0,-0.0043,-0.0046,-0.0058,-0.0045,-0.0044,-0.0024,-0.0036,-0.0032,-0.0029,-0.0006,-0.0002,-0.0015,0.0014,0.0016,0.0041,0.0042,0.003,0.0031,0.0085,0.0087,0.0089,0.0066,0,0,0,0,0,0,-0.0043,-0.0046,-0.0054,-0.0046,-0.0046,-0.006,-0.0037,-0.0032,-0.0029,-0.0026,-0.0007,-0.0003,0.0015,0.004,0.0041,0.0043,0.0031,0.0084,0.0086,0.0088,0.0066,0.0067,0.0069,0,0,0,0,0,-0.0042,-0.0065,-0.0055,-0.0056,-0.0058,-0.006,-0.0058,-0.0039,-0.003,-0.0034,0.0,-0.0004,0.0057,0.0041,0.0042,0.0044,0.0082,0.0085,0.0088,0.0065,0.0067,0.0069,0,0,0,0,0,0,-0.0074,-0.0063,-0.0052,-0.0075,-0.0066,-0.0055,-0.0057,-0.0047,-0.0026,-0.0018,0.0005,0.0011,0.0031,0.0047,0.0029,0.0073,0.0071,0.0075,0.0053,0.0056,0.0057,0.0073,0.0031,0,0,0,0,0,-0.0081,-0.0087,-0.0075,-0.0095,-0.0089,-0.0074,-0.0072,-0.0059,-0.0041,-0.0032,-0.0015,0.0016,0.0042,0.0057,0.0075,0.0092,0.0117,0.01,0.0101,0.0103,0.012,0.0171,0.0179,0.0099,0.0099,0.0099,0,0,-0.0094,-0.0095,-0.0095,-0.01,-0.009,-0.0083,-0.0071,-0.0071,-0.0063,-0.0033,-0.0016,0.001,0.0047,0.0074,0.0085,0.0089,0.0134,0.0106,0.0107,0.0124,0.0175,0.0183,0.0189,0.0101,0.0101,0.0101,0,0,-0.0119,-0.0128,-0.0127,-0.0123,-0.0112,-0.0101,-0.0103,-0.0088,-0.0076,-0.0059,-0.0024,0.0016,0.0035,0.0082,0.0104,0.0127,0.0133,0.0124,0.015,0.0199,0.0205,0.0212,0.0227,0.0235,0.0134,0.0134,0.0134,0,-0.0119,-0.0138,-0.013,-0.013,-0.0124,-0.011,-0.0104,-0.0096,-0.0073,-0.0052,-0.0055,0.002,0.0045,0.0106,0.0129,0.0129,0.0148,0.0131,0.0199,0.0206,0.0213,0.0228,0.0236,0.0133,0.0133,0.0133,0.0134,0,-0.0141,-0.0148,-0.0155,-0.0141,-0.0137,-0.0138,-0.0118,-0.0108,-0.0095,-0.0071,-0.0025,0.002,0.0079,0.0087,0.0117,0.0184,0.0177,0.0183,0.0187,0.0219,0.0233,0.0242,0.0132,0.0133,0.0133,0.0133,0,0,-0.0135,-0.0156,-0.0156,-0.0148,-0.0141,-0.0136,-0.0126,-0.0096,-0.0064,-0.0049,-0.0002,0.0054,0.0091,0.0123,0.0161,0.0213,0.0271,0.0227,0.0229,0.0229,0.0357,0.0274,0.0276,0.0286,0.0288,0.029,0.0337,0,-0.0137,-0.015,-0.0158,-0.0152,-0.0147,-0.0133,-0.0116,-0.0088,-0.0059,-0.0011,0.0036,0.0096,0.0099,0.0148,0.0192,0.0258,0.03,0.0256,0.0339,0.0341,0.0253,0.0287,0.0297,0.0344,0.0346,0.0348,0.0349,0,-0.0142,-0.0148,-0.0154,-0.0142,-0.0135,-0.0124,-0.0078,-0.0059,0.0004,0.0034,0.0091,0.0131,0.0214,0.0214,0.0315,0.0285,0.0329,0.0365,0.0367,0.0311,0.0277,0.0315,0.0367,0.0366,0.0364,0.0363,0.0362,0,-0.0141,-0.0141,-0.0148,-0.0147,-0.0131,-0.0114,-0.0091,-0.0036,-0.0004,0.0084,0.0119,0.0199,0.0246,0.0314,0.0367,0.036,0.0461,0.0458,0.0415,0.0408,0.0477,0.047,0.0539,0.0539,0.0539,0.0539,0.0539,0,-0.0147,-0.0148,-0.0142,-0.0146,-0.0117,-0.0099,-0.0051,-0.0015,0.0051,0.009,0.0154,0.0189,0.0279,0.0329,0.0383,0.041,0.0468,0.0429,0.0425,0.0463,0.0454,0.0482,0.0475,0.0541,0.0541,0.054,0.054,0,-0.0155,-0.0164,-0.0159,-0.0136,-0.0123,-0.0095,-0.0041,-0.0002,0.0059,0.011,0.0141,0.0202,0.0257,0.0318,0.0424,0.0415,0.0472,0.0471,0.0487,0.0481,0.0383,0.0374,0.0436,0.0434,0.0432,0.043,0.0429,0,-0.017,-0.0172,-0.0151,-0.014,-0.0131,-0.0087,-0.0057,0.0003,0.0033,0.0098,0.0111,0.0179,0.0212,0.0282,0.0349,0.0425,0.0427,0.0446,0.0438,0.0388,0.0378,0.0372,0.0366,0.0425,0.0425,0.0424,0.0424,0,-0.0185,-0.0179,-0.0175,-0.0141,-0.0116,-0.0092,-0.0055,-0.0035,0.002,0.0069,0.0093,0.0136,0.0175,0.0238,0.0292,0.0348,0.0432,0.0425,0.043,0.0423,0.0376,0.0366,0.0363,0.0417,0.0418,0.0419,0.0419,0,-0.0188,-0.0185,-0.0172,-0.014,-0.0113,-0.0105,-0.0085,-0.0059,-0.0023,0.0036,0.0034,0.01,0.0149,0.0196,0.0248,0.0288,0.0296,0.0302,0.0313,0.0322,0.0264,0.0186,0.0176,0,0,0,0,0,-0.0178,-0.0184,-0.0169,-0.0141,-0.0115,-0.01,-0.0086,-0.0069,-0.003,-0.0023,0.0009,0.0046,0.0105,0.0141,0.0167,0.0207,0.0301,0.0234,0.0314,0.0379,0.0387,0.033,0,0,0,0,0,0,-0.0179,-0.0173,-0.0174,-0.0146,-0.0123,-0.0101,-0.0097,-0.0082,-0.0077,-0.0038,-0.0,0.0034,0.0103,0.01,0.0167,0.018,0.0225,0.0277,0.0277,0.0375,0.0382,0.0388,0.0333,0,0,0,0,0]},{"header":{"parameterUnit":"m.s-1","parameterCategory":2,"la1":30.2991,"la2":30.254,"lo1":-89.0895,"lo2":-89.0444,"dy":0.0017,"dx":0.0017,"nx":28,"ny":28,"refTime":"2024-04-18T09:00:00:Z","depth":"4","parameterNumber":3,"parameterNumberName":"V-component_of_CURRENTS"},"data":[0,0,0,0,0,0,0,0,0,0,0,0,0,0,0,0,0,0,0,0,0,0,0,0,0,0,0,0,0,0,0,0,0,0,0,0,0,0,0,0,0,0,0,0,0,0,0,0,0,0,0,0,0,0,0,0,0,0,0.041,0.0411,0,0.0458,0.0458,0.0459,0.0478,0.0478,0.0478,0.0478,0.0471,0.0471,0.0471,0,0,0,0,0,0,0,0,0,0,0,0,0,0.0365,0.0365,0.041,0.0411,0.0411,0.0458,0.0458,0.0459,0.0478,0.0478,0.0478,0.0478,0.0471,0.0471,0.0471,0,0,0,0,0,0,0,0,0,0,0,0,0,0.0394,0.0365,0.041,0.0427,0.0429,0.0458,0.0458,0.0459,0.0478,0.0478,0.0478,0.0478,0.0472,0.0471,0.0471,0.0471,0,0,0.047,0.047,0,0,0,0,0,0,0,0,0.0393,0.0396,0.0424,0.0426,0.0428,0.0463,0.044,0.0461,0.0478,0.0458,0.0478,0.0478,0.0464,0.0465,0.0473,0.047,0.047,0.047,0.047,0.047,0.047,0,0,0,0,0,0,0,0.0391,0.0394,0.0428,0.0425,0.0427,0.0443,0.0447,0.0444,0.0459,0.046,0.0462,0.0469,0.0465,0.0473,0.0473,0.047,0.047,0.047,0.047,0.047,0.0487,0.0487,0,0,0,0,0,0,0.0385,0.0392,0.0426,0.0429,0.0411,0.0443,0.0448,0.0451,0.046,0.0463,0.0469,0.0469,0.0474,0.0473,0.0473,0.0504,0.047,0.047,0.047,0.0486,0.0487,0.0488,0,0,0,0,0,0,0.0384,0.0388,0.0424,0.0413,0.0419,0.0444,0.0448,0.0452,0.0473,0.0468,0.0469,0.0487,0.0474,0.0473,0.0484,0.0503,0.047,0.047,0.0486,0.0486,0.0487,0.0546,0,0,0,0,0,0,0.0382,0.0387,0.0399,0.0412,0.0419,0.0448,0.0448,0.0453,0.0477,0.0479,0.0483,0.0482,0.0473,0.0485,0.0484,0.0502,0.047,0.0485,0.0486,0.0487,0.0544,0.0549,0.0554,0,0,0,0,0,0.0381,0.0392,0.0399,0.0404,0.0431,0.0449,0.0454,0.0472,0.0478,0.049,0.0495,0.0483,0.0491,0.0485,0.0484,0.0502,0.0484,0.0486,0.0487,0.0541,0.0548,0.0554,0,0,0,0,0,0,0.0378,0.0395,0.0403,0.0419,0.0437,0.0453,0.047,0.048,0.0496,0.05,0.0493,0.0492,0.0507,0.0495,0.049,0.0509,0.0484,0.0485,0.0526,0.0532,0.0537,0.0534,0.0469,0,0,0,0,0,0.0383,0.0396,0.0413,0.0428,0.0438,0.0457,0.0472,0.0482,0.0494,0.0502,0.0507,0.0508,0.051,0.0514,0.0511,0.0525,0.0506,0.0534,0.0539,0.0544,0.054,0.0525,0.0528,0.0492,0.0492,0.0492,0,0,0.039,0.0398,0.0409,0.0429,0.0445,0.0464,0.0466,0.0489,0.0505,0.0497,0.0523,0.0525,0.0517,0.0533,0.0538,0.0528,0.0547,0.0545,0.0549,0.0543,0.0527,0.053,0.0533,0.0493,0.0492,0.0492,0,0,0.04,0.0414,0.0428,0.0445,0.0469,0.0479,0.0488,0.0512,0.0524,0.0548,0.0545,0.056,0.0566,0.0568,0.0567,0.0597,0.0572,0.0597,0.0625,0.0612,0.0615,0.0617,0.0612,0.0613,0.0603,0.0603,0.0603,0,0.0406,0.0425,0.0437,0.0454,0.047,0.0486,0.0506,0.0521,0.0547,0.0554,0.056,0.058,0.0582,0.0596,0.0613,0.0609,0.0598,0.0606,0.0619,0.062,0.0621,0.0615,0.0616,0.0606,0.0606,0.0605,0.0605,0,0.0428,0.0448,0.0458,0.0483,0.0499,0.0521,0.0538,0.0555,0.0572,0.0587,0.061,0.062,0.0629,0.0639,0.064,0.0655,0.0643,0.0626,0.0605,0.0629,0.0621,0.0621,0.061,0.0609,0.0608,0.0608,0,0,0.0427,0.0465,0.0472,0.0485,0.0518,0.0529,0.0551,0.0573,0.0588,0.0617,0.0634,0.0662,0.0672,0.0671,0.0677,0.0679,0.0695,0.0665,0.0663,0.0663,0.0672,0.0652,0.0649,0.0679,0.0679,0.0679,0.0668,0,0.0443,0.0472,0.049,0.0522,0.0538,0.0556,0.0576,0.0596,0.0614,0.0634,0.0648,0.0675,0.0682,0.0701,0.0701,0.0696,0.0693,0.0699,0.0645,0.0643,0.0625,0.0648,0.0679,0.0668,0.0668,0.0667,0.0667,0,0.0461,0.0475,0.0508,0.0535,0.0544,0.0572,0.0595,0.0615,0.064,0.0655,0.0677,0.069,0.0716,0.071,0.0708,0.0713,0.0696,0.0687,0.0685,0.0642,0.0622,0.0633,0.0666,0.0666,0.0666,0.0666,0.0666,0,0.0446,0.0487,0.051,0.0525,0.056,0.058,0.0603,0.0631,0.0649,0.0678,0.0698,0.0713,0.0737,0.0716,0.0723,0.0712,0.0709,0.0682,0.0644,0.0642,0.0636,0.0634,0.0659,0.0659,0.0659,0.0659,0.0659,0,0.0449,0.0468,0.0514,0.0528,0.0563,0.0587,0.0629,0.0644,0.0676,0.0705,0.072,0.0745,0.074,0.0745,0.0724,0.0698,0.0709,0.065,0.0637,0.0664,0.0664,0.0637,0.0634,0.0659,0.0659,0.0659,0.0659,0,0.043,0.0461,0.0489,0.0537,0.056,0.0588,0.0654,0.0679,0.0709,0.0743,0.0759,0.0778,0.0791,0.0781,0.0758,0.0709,0.0679,0.0662,0.0713,0.0702,0.0615,0.0616,0.0597,0.0596,0.0596,0.0595,0.0595,0,0.0419,0.0434,0.0495,0.0523,0.0555,0.0609,0.0651,0.0696,0.0721,0.0766,0.0777,0.0807,0.0818,0.0775,0.0756,0.0706,0.0688,0.0653,0.0611,0.0619,0.0608,0.061,0.0611,0.0594,0.0593,0.0593,0.0593,0,0.0392,0.0423,0.0445,0.0519,0.0574,0.0625,0.0685,0.07,0.0749,0.0776,0.0793,0.0783,0.0791,0.0765,0.0742,0.07,0.0663,0.0645,0.0645,0.0605,0.0614,0.0604,0.0607,0.0591,0.0591,0.0591,0.0591,0,0.0373,0.0392,0.0446,0.0513,0.0572,0.0629,0.0661,0.0704,0.0736,0.0771,0.0782,0.0799,0.0817,0.0763,0.0742,0.0706,0.0666,0.0606,0.0607,0.0609,0.0612,0.0626,0.0596,0,0,0,0,0,0.036,0.0397,0.0443,0.052,0.0576,0.0632,0.0678,0.0705,0.0749,0.0753,0.0763,0.0773,0.0739,0.0738,0.0695,0.0712,0.0657,0.0653,0.0587,0.0577,0.058,0.058,0,0,0,0,0,0,0.0352,0.0398,0.0439,0.0521,0.0576,0.0655,0.0687,0.0714,0.0712,0.074,0.0734,0.0734,0.0718,0.0781,0.0694,0.0686,0.0623,0.0653,0.065,0.0576,0.0578,0.0581,0.0581,0,0,0,0,0]}]]